Location: Binningen
(47.7924°N, 8.7261°E)
Time: 04:50:14
(UTC+00:00)

ATLAS CENTAUR R/B - Pass Details

Date: 17 May 2021
Orbit: 472 x 671 km, 64.6° (Epoch: 13 June)

Event Time Altitude Azimuth Distance (km) Brightness Sun altitude
Exits shadow 23:47:25 - 276° (W) 2,086 4.3 -22.4°
Reaches altitude 10° 23:48:50 10° 290° (WNW) 1,690 3.9 -22.4°
Maximum altitude 23:51:12 16° 330° (NNW) 1,388 4.0 -22.3°
Drops below altitude 10° 23:53:40 10° 9° (N) 1,750 5.0 -22.3°
Sets 23:56:37 0° 32° (NNE) 2,685 6.0 -22.2°
